www.pogodaiklimat.ru

Погода и климат >> Архив погоды >> Норвегия >> Эдж


ПОГОДА на Эдже

  • Прогноз погоды на Эдже
  • Монитор погоды на Эдже

АРХИВ ПОГОДЫ на Эдже

Время (UTC), дата Ветер
(напр.,м/с)
 
Видим.   Явления Облачность Т
(С)
Тd
(С)
f
(%)
Тe
(С)
Тes
(С)
Комфортность P
(гПа)
Po
(гПа)
Тmin
(С)
Tmax
(С)
R
(мм)
R24
(мм)
S
(см)
13 11.02 СВ 4
{7}
н/о н/о -10.4 -11.6 91 -17 -17 1005.8 1004.2
14 11.02 С 7
{8}
н/о н/о -10.7 -11.9 91 -20 -20 1005.6 1004.0
15 11.02 С 5
{7}
н/о н/о -11.1 -12.3 91 -19 -19 1006.0 1004.4
16 11.02 С 5
{7}
н/о н/о -11.6 -12.9 90 -20 -20 1006.1 1004.4
17 11.02 С 5
{6}
н/о н/о -12.0 -13.3 90 -20 -20 1006.4 1004.7
18 11.02 СВ 4
{8}
н/о н/о -12.3 -13.6 90 -19 -19 1006.6 1005.0 -12.3 -8.3
19 11.02 СВ 4 н/о н/о -12.5 -13.8 90 -20 -20 1006.8 1005.1
20 11.02 СВ 4
{4}
н/о н/о -12.5 -13.8 90 -20 -20 1007.0 1005.3
21 11.02 СВ 4
{5}
н/о н/о -12.5 -13.8 90 -20 -20 1007.0 1005.3
22 11.02 СВ 4
{5}
н/о н/о -12.6 -14.0 89 -20 -20 1007.1 1005.5
23 11.02 СВ 5
{6}
н/о н/о -12.8 -14.4 88 -21 -21 1007.5 1005.8
00 12.02 СВ 5
{6}
н/о н/о -13.1 -15.0 86 -21 -21 1007.5 1005.9
01 12.02 СВ 5
{6}
н/о н/о -13.3 -15.1 86 -22 -22 1007.5 1005.9
02 12.02 СВ 5
{6}
н/о н/о -13.5 -15.0 88 -22 -22 1007.6 1005.9
03 12.02 СВ 5
{6}
н/о н/о -13.6 -15.4 86 -22 -22 1007.9 1006.3
04 12.02 СВ 4
{6}
н/о н/о -13.8 -15.6 86 -21 -21 1008.1 1006.4
05 12.02 СВ 3
{6}
н/о н/о -14.4 -15.8 89 -21 -21 1008.4 1006.7
06 12.02 СВ 3
{6}
н/о н/о -14.6 -16.1 88 -21 -21 1008.7 1007.1 -14.6 -12.3
07 12.02 СВ 4
{5}
н/о н/о -15.1 -16.6 88 -23 -23 1008.9 1007.2
08 12.02 СВ 3
{5}
н/о н/о -15.4 -16.9 88 -22 -22 1008.8 1007.2
09 12.02 СВ 3
{4}
н/о н/о -15.3 -16.9 88 -22 -22 1009.1 1007.4
10 12.02 СВ 3
{3}
н/о н/о -15.4 -17.0 88 -22 -22 1009.3 1007.7
11 12.02 СВ 3
{4}
н/о н/о -15.6 -17.3 87 -22 -22 1009.3 1007.6
12 12.02 СВ 3
{5}
н/о н/о -15.7 -17.4 87 -22 -22 1009.4 1007.8
13 12.02 СВ 2
{3}
н/о н/о -15.6 -17.3 87 -21 -21 1009.4 1007.7
14 12.02 СВ 3
{3}
н/о н/о -15.6 -17.5 85 -22 -22 1009.3 1007.6
15 12.02 СВ 3
{3}
н/о н/о -15.6 -18.2 80 -22 -22 1009.1 1007.4
16 12.02 СВ 2
{3}
н/о н/о -15.6 -17.8 83 -21 -21 1008.9 1007.2
17 12.02 СВ 2
{3}
н/о н/о -16.0 -18.1 84 -21 -21 1008.4 1006.7
18 12.02 СВ 2
{3}
н/о н/о -16.2 -18.3 84 -21 -21 1008.1 1006.5 -16.3 -14.6
19 12.02 СВ 2
{3}
н/о н/о -17.0 -19.0 84 -22 -22 1008.0 1006.4
20 12.02 СВ 1
{2}
н/о н/о -17.5 -19.1 87 -20 -20 1007.8 1006.1
21 12.02 штиль 0
{1}
н/о н/о -17.3 -18.8 88 -17 -17 1007.7 1006.0
22 12.02 В 1
{1}
н/о н/о -17.1 -18.7 87 -20 -20 1007.0 1005.4
00 13.02 СВ 1 н/о н/о -17.3 -18.5 90 -20 -20 1006.5 1004.8
01 13.02 штиль 0
{1}
н/о н/о -18.1 -19.3 90 -18 -18 1006.0 1004.3
02 13.02 штиль 0 н/о н/о -19.0 -20.3 89 -19 -19 1005.8 1004.1
03 13.02 штиль 0 н/о н/о -19.5 -20.7 90 -20 -20 1005.7 1004.0
04 13.02 штиль 0 н/о н/о -20.1 -21.5 89 -20 -20 1005.4 1003.7
05 13.02 З 1
{1}
н/о н/о -19.7 -21.1 89 -23 -23 1005.1 1003.4
06 13.02 штиль 0
{3}
н/о н/о -23.0 -25.1 83 -23 -23 1004.9 1003.2
07 13.02 штиль 0
{1}
н/о н/о -21.1 -22.8 86 -21 -21 1005.0 1003.3
08 13.02 штиль 0 н/о н/о -19.9 -21.5 87 -20 -20 1005.2 1003.5
09 13.02 ЮЗ 1
{2}
н/о н/о -18.6 -20.2 87 -21 -21 1005.4 1003.7
10 13.02 ЮВ 2
{2}
н/о н/о -19.4 -21.1 86 -25 -25 1005.1 1003.4
11 13.02 В 1
{2}
н/о н/о -19.0 -20.6 87 -22 -22 1005.0 1003.3
12 13.02 штиль 0
{2}
н/о н/о -21.0 -22.9 85 -21 -21 1005.1 1003.4
14 13.02 ЮЗ 2
{2}
н/о н/о -17.5 -19.1 87 -23 -23 1004.5 1002.8
15 13.02 штиль 0
{3}
н/о н/о -19.9 -21.8 85 -20 -20 1004.7 1003.0
16 13.02 ЮЗ 1
{1}
н/о н/о -18.0 -19.5 88 -21 -21 1004.8 1003.1
17 13.02 З 1
{3}
н/о н/о -23.2 -25.7 80 -27 -27 1004.7 1003.0
18 13.02 штиль 0 н/о н/о -22.6 -24.5 84 -23 -23 1004.6 1002.8
19 13.02 штиль 0
{1}
н/о н/о -23.8 -25.8 83 -24 -24 1004.5 1002.8
20 13.02 ЮЗ 2
{2}
н/о н/о -17.5 -19.0 88 -23 -23 1004.1 1002.4
21 13.02 ЮЗ 3
{3}
н/о н/о -17.3 -18.8 88 -24 -24 1003.9 1002.2
22 13.02 ЮЗ 2
{3}
н/о н/о -17.4 -19.0 87 -23 -23 1003.5 1001.8
23 13.02 ЮЗ 3
{4}
н/о н/о -17.3 -18.8 88 -24 -24 1003.2 1001.5
00 14.02 ЮЗ 5
{5}
н/о н/о -18.2 -19.9 86 -28 -28 1002.8 1001.1
01 14.02 ЮЗ 5
{6}
н/о н/о -17.9 -19.4 88 -27 -27 1002.4 1000.7
02 14.02 ЮЗ 4
{6}
н/о н/о -17.0 -18.5 88 -25 -25 1002.1 1000.4
03 14.02 ЮЗ 3
{5}
н/о н/о -16.4 -17.8 89 -23 -23 1002.0 1000.3
04 14.02 ЮЗ 4
{4}
н/о н/о -16.2 -17.6 89 -24 -24 1001.5 999.9
05 14.02 ЮЗ 4
{5}
н/о н/о -15.9 -17.3 89 -24 -24 1000.8 999.1
06 14.02 ЮЗ 4
{6}
н/о н/о -16.4 -17.9 88 -25 -25 1000.3 998.7 -24.6 -15.7
07 14.02 В 2
{5}
н/о н/о -21.8 -23.6 85 -28 -28 999.7 998.1
08 14.02 ЮВ 2
{3}
н/о н/о -18.9 -20.4 88 -25 -25 999.2 997.5
09 14.02 штиль 0
{1}
н/о н/о -18.9 -20.7 86 -19 -19 999.1 997.4
10 14.02 штиль 0
{1}
н/о н/о -17.5 -19.1 87 -18 -18 998.5 996.8
11 14.02 ЮВ 2
{3}
н/о н/о -20.7 -22.4 86 -27 -27 997.9 996.2
12 14.02 ЮВ 1
{5}
н/о н/о -22.4 -24.3 84 -26 -26 997.2 995.5
13 14.02 штиль 0
{1}
н/о н/о -24.1 -26.1 83 -24 -24 996.9 995.2
14 14.02 Ю 1
{1}
н/о н/о -21.6 -23.4 85 -25 -25 996.2 994.5
15 14.02 штиль 0
{1}
н/о н/о -22.8 -24.7 84 -23 -23 996.1 994.4
16 14.02 З 1
{2}
н/о н/о -19.9 -21.5 87 -23 -23 995.7 994.0
17 14.02 штиль 0
{2}
н/о н/о -25.2 -27.4 82 -25 -25 995.6 993.9
18 14.02 СЗ 1
{3}
н/о н/о -23.0 -25.2 82 -26 -26 995.2 993.5 -25.9 -16.1
19 14.02 З 1
{3}
н/о н/о -17.8 -19.4 87 -21 -21 995.0 993.4
20 14.02 З 1
{3}
н/о н/о -19.8 -21.5 86 -23 -23 995.2 993.5
21 14.02 З 2
{2}
н/о н/о -18.2 -19.8 87 -24 -24 995.5 993.8
22 14.02 ЮЗ 4
{5}
н/о н/о -17.4 -19.0 87 -26 -26 995.5 993.9
23 14.02 ЮЗ 3
{5}
н/о н/о -16.8 -18.4 87 -24 -24 996.0 994.4
00 15.02 ЮЗ 4
{5}
н/о н/о -17.5 -19.3 86 -26 -26 996.4 994.7
01 15.02 З 4
{4}
н/о н/о -16.4 -18.5 84 -25 -25 996.6 995.0
02 15.02 З 3
{4}
н/о н/о -15.6 -17.7 84 -22 -22 997.1 995.4
03 15.02 С 5
{6}
н/о н/о -14.4 -16.0 88 -23 -23 997.6 996.0
04 15.02
{6}
н/о н/о -14.3 -15.7 89 998.0 996.4
05 15.02 С 6
{7}
н/о н/о -14.5 -16.0 88 -24 -24 998.7 997.1
06 15.02 СВ 4
{7}
н/о н/о -15.0 -16.9 85 -23 -23 999.5 997.8 -26.1 -14.1
07 15.02 СЗ 2
{5}
н/о н/о -15.6 -17.0 89 -21 -21 1000.2 998.5
08 15.02 СВ 1
{2}
н/о н/о -15.1 -16.7 88 -18 -18 1001.0 999.3
09 15.02 СЗ 1
{1}
н/о н/о -15.3 -17.0 87 -18 -18 1001.7 1000.1
10 15.02 ЮЗ 1
{2}
н/о н/о -15.3 -17.0 87 -18 -18 1002.1 1000.4
11 15.02 ЮЗ 1
{2}
н/о н/о -15.3 -17.2 85 -18 -18 1002.5 1000.9
12 15.02 ЮЗ 4
{5}
н/о н/о -15.6 -17.5 85 -24 -24 1002.9 1001.3
13 15.02 ЮЗ 4
{5}
н/о н/о -15.0 -17.4 82 -23 -23 1003.3 1001.6
14 15.02 ЮЗ 2
{4}
н/о н/о -14.4 -17.9 75 -19 -19 1003.6 1001.9
15 15.02 З 3
{4}
н/о н/о -14.2 -17.6 75 -21 -21 1004.1 1002.4
16 15.02 З 1
{3}
н/о н/о -13.6 -17.4 73 -16 -16 1004.2 1002.5
17 15.02 ЮЗ 5
{5}
н/о н/о -14.7 -17.9 77 -23 -23 1004.1 1002.5
18 15.02 ЮЗ 5
{6}
н/о н/о -14.9 -17.6 80 -24 -24 1004.4 1002.8 -16.3 -13.5
19 15.02 СЗ 5
{5}
н/о н/о -13.3 -16.1 79 -22 -22 1004.7 1003.0
20 15.02 С 5
{7}
н/о н/о -14.1 -17.2 77 -23 -23 1005.1 1003.4
21 15.02 С 3
{6}
н/о н/о -15.1 -17.5 82 -22 -22 1005.4 1003.7
22 15.02
{4}
н/о н/о -15.8 -18.3 81 1005.5 1003.9
23 15.02 С 4
{5}
н/о н/о -16.9 -19.0 84 -25 -25 1005.4 1003.8
00 16.02 С 1
{7}
н/о н/о -16.6 -18.4 86 -19 -19 1005.6 1003.9
01 16.02 С 3
{5}
н/о н/о -16.3 -18.4 84 -23 -23 1005.7 1004.0
02 16.02 СВ 2
{4}
н/о н/о -16.8 -19.2 82 -22 -22 1005.8 1004.1
03 16.02 СВ 4
{6}
н/о н/о -17.7 -19.9 83 -26 -26 1005.4 1003.7
04 16.02 СВ 5
{7}
н/о н/о -18.4 -21.1 79 -28 -28 1005.7 1004.0
05 16.02 СВ 5
{6}
н/о н/о -19.1 -22.8 72 -29 -29 1005.8 1004.1
06 16.02 СВ 4
{7}
н/о н/о -20.0 -23.8 72 -29 -29 1005.9 1004.2 -20.0 -13.3
07 16.02 С 4
{5}
н/о н/о -20.5 -24.9 68 -30 -30 1005.9 1004.2
08 16.02 С 5
{6}
н/о н/о -20.5 -24.9 68 -31 -31 опасность
обморожения
1005.6 1003.9
09 16.02 С 3
{6}
н/о н/о -21.5 -25.7 69 -29 -29 1006.1 1004.4
10 16.02 С 4
{5}
н/о н/о -22.0 -26.0 70 -31 -31 опасность
обморожения
1006.2 1004.5
11 16.02 С 3
{5}
н/о н/о -21.8 -25.7 71 -30 -30 1006.5 1004.8
12 16.02 С 3
{6}
н/о н/о -22.1 -25.8 72 -30 -30 1006.5 1004.8
13 16.02 С 2
{3}
н/о н/о -23.5 -26.6 76 -30 -30 1006.7 1005.0
14 16.02 С 3
{4}
н/о н/о -23.8 -27.3 73 -32 -32 опасность
обморожения
1006.9 1005.2
15 16.02 С 6
{7}
н/о н/о -24.3 -28.4 69 -36 -36 опасность
обморожения
1007.2 1005.5
16 16.02
{6}
н/о н/о -25.2 -29.0 70 1007.6 1005.9
17 16.02 С 3
{4}
н/о н/о -26.6 -30.2 71 -36 -36 опасность
обморожения
1007.9 1006.1
20 16.02 ЮЗ 3
{5}
н/о н/о -26.5 -29.1 79 -35 -35 опасность
обморожения
1008.3 1006.6
21 16.02
{14}
н/о н/о -24.2 -27.7 73 1008.9 1007.2
22 16.02 С 2
{6}
н/о н/о -25.8 -28.4 79 -33 -33 опасность
обморожения
1009.5 1007.7
23 16.02 СВ 3
{5}
н/о н/о -26.2 -28.9 78 -35 -35 опасность
обморожения
1010.0 1008.3
00 17.02 С 3 н/о н/о -26.4 -29.0 79 -35 -35 опасность
обморожения
1010.3 1008.5
01 17.02 С 5
{6}
н/о н/о -26.5 -29.3 77 -38 -38 опасность
обморожения
1010.7 1009.0
02 17.02 С 5
{6}
н/о н/о -26.6 -29.4 77 -38 -38 опасность
обморожения
1011.2 1009.5
03 17.02
{6}
н/о н/о -26.4 -29.1 78 1011.6 1009.8
04 17.02 С 7
{8}
н/о н/о -26.2 -28.9 78 -40 -40 опасность
обморожения
1011.7 1010.0
05 17.02 С 7
{9}
н/о н/о -25.3 -27.8 80 -39 -39 опасность
обморожения
1012.1 1010.3
06 17.02 С 5
{9}
н/о н/о -25.5 -28.1 79 -37 -37 опасность
обморожения
1012.6 1010.8
07 17.02 С 9
{10}
н/о н/о -24.7 -27.3 79 -39 -39 опасность
обморожения
1012.8 1011.1
09 17.02 С 4
{5}
н/о н/о -25.1 -27.6 80 -35 -35 опасность
обморожения
1014.7 1012.9
10 17.02
{6}
н/о н/о -25.1 -27.6 80 1015.0 1013.3
11 17.02 СЗ 5
{6}
н/о н/о -23.9 -26.1 82 -35 -35 опасность
обморожения
1015.4 1013.7
12 17.02 С 5 н/о н/о -23.1 -25.5 81 -34 -34 опасность
обморожения
1015.6 1013.9
13 17.02 С 6
{10}
н/о н/о -23.0 -25.4 81 -35 -35 опасность
обморожения
1015.9 1014.2
14 17.02 С 6
{9}
н/о н/о -22.6 -24.9 81 -34 -34 опасность
обморожения
1015.7 1014.0
15 17.02 С 5
{9}
н/о н/о -22.8 -25.0 82 -34 -34 опасность
обморожения
1016.2 1014.5
16 17.02 С 5
{7}
н/о н/о -22.3 -24.6 81 -33 -33 опасность
обморожения
1016.3 1014.5
17 17.02 С 7
{9}
н/о н/о -22.2 -24.6 81 -35 -35 опасность
обморожения
1016.2 1014.5
18 17.02 С 9
{11}
н/о н/о -22.1 -24.7 79 -36 -36 опасность
обморожения
1016.1 1014.4
20 17.02 СЗ 8
{10}
н/о н/о -21.9 -24.2 82 -35 -35 опасность
обморожения
1016.3 1014.6
21 17.02 СЗ 10
{12}
н/о н/о -22.0 -24.5 80 -36 -36 опасность
обморожения
1016.4 1014.7
22 17.02 СЗ 9
{13}
н/о н/о -21.9 -24.3 81 -36 -36 опасность
обморожения
1016.5 1014.7
23 17.02 СЗ 9
{12}
н/о н/о -22.2 -24.6 81 -36 -36 опасность
обморожения
1016.7 1014.9
00 18.02 СЗ 9 н/о н/о -22.3 -24.7 81 -36 -36 опасность
обморожения
1016.1 1014.4
01 18.02 СЗ 8
{11}
н/о н/о -22.5 -25.0 80 -36 -36 опасность
обморожения
1016.1 1014.4
02 18.02 СЗ 10
{11}
н/о н/о -22.6 -25.4 78 -37 -37 опасность
обморожения
1015.5 1013.7
03 18.02
{11}
н/о н/о -22.4 -24.8 81 1015.5 1013.8
04 18.02 С 6 н/о н/о -22.7 -25.1 81 -34 -34 опасность
обморожения
1015.4 1013.7
05 18.02 С 4
{6}
н/о н/о -22.8 -25.0 82 -32 -32 опасность
обморожения
1015.1 1013.4
06 18.02 С 3
{11}
н/о н/о -22.5 -24.6 83 -31 -31 опасность
обморожения
1014.8 1013.0
07 18.02 С 5
{7}
н/о н/о -22.4 -24.7 81 -33 -33 опасность
обморожения
1014.5 1012.8
08 18.02
{7}
н/о н/о -22.5 -25.0 80 1014.3 1012.6
09 18.02
{8}
н/о н/о -22.4 -24.8 81 1013.9 1012.2
10 18.02
{6}
н/о н/о -22.6 -25.1 80 1013.9 1012.2
11 18.02 С 5
{6}
н/о н/о -22.9 -25.7 78 -34 -34 опасность
обморожения
1013.8 1012.1

 

Местоположение метеостанции Эдж (Норвегия): широта 78.25 долгота 22.82 высота над уровнем моря 14 м.

В архиве по умолчанию представлена погода на Эдже за последнюю неделю. Архивные данные за месяц целиком и за предыдущие месяцы, начиная с января 2011 года, Вы можете получить, выбрав интересующий диапазон дат из раскрывающегося списка и нажав кнопку "Ввод!".


*Определитесь, кто Вы:
робот инопланетянин человек

Внимание! Время в таблицах - всемирное. Для получения местного времени необходимо прибавить поправку, которая равна 1 ч.

Смотрите также архив погоды в соседних городах и на ближайших метеорологических станциях:

Погода в Пирамиде (Норвегия) (151 км)
Погода на Конгсёйа (Норвегия) (153 км)
Погода в Свальбард аэропорту (Норвегия) (166 км)
Погода в Баренцбурге (Шпицберген, Россия) (196 км)
Погода на Акселойа (Норвегия) (197 км)
Погода в Хопене (Норвегия) (201 км)
Погода на Хорнсунне (Норвегия) (222 км)
Погода на Верлегенхукен (Норвегия) (243 км)
Погода на Сёркаппёйа (Норвегия) (249 км)
Погода в Ню-Олесунн (Норвегия) (251 км)

Пояснения к столбцам:

Ветер - указаны скорость ветра в м/с - средняя за 10 мин, порывы в срок и между сроками (в фигурных скобках) и направление, откуда дует ветер: С - северный, СВ - северо-восточный, В - восточный, ЮВ - юго-восточный, Ю - южный, ЮЗ - юго-западный, З - западный, СЗ - северо-западный.
Видимость - горизонтальная дальность видимости в метрах или километрах. При видимости от 1 до 10 км при отсутствии осадков обычно наблюдается дымка, при ухудшении видимости до 1 км и менее - туман. В сухую погоду видимость может ухудшаться дымом, пылью или мглою.
Явления - указаны атмосферные явления, наблюдавшиеся в срок или в последний час перед сроком; фигурными скобками обозначены явления, наблюдавшиеся между сроками (за 1-3 часа до срока); квадратными скобками обозначены град или гололедные отложения с указанием их диаметра в мм.
Облачность - указаны через наклонную черту общая и нижняя облачность в баллах и высота нижней границы облаков в метрах; квадратными скобками обозначены формы облаков: Ci - перистые, Cs - перисто-слоистые, Cc - перисто-кучевые, Ac - высококучевые, As - высокослоистые, Sc - слоисто-кучевые, Ns - слоисто-дождевые, Cu - кучевые, Cb - кучево-дождевые. Подробнее классификацию облаков см. в Атласе облаков (PDF).
T - Температура воздуха - температура, измеренная на высоте 2 м над землей.
Td - Температура точки росы - температура, при понижении до которой содержащийся в воздухе водяной пар достигнет насыщения.
f - Относительная влажность воздуха - влажноcть воздуха, измеренная на высоте 2 м над землей.
Te - Эффективная температура - температура, которую ощущает одетый по сезону человек в тени. Характеристика душности погоды. При расчете учитывается влияние влажности воздуха и скорости ветра на теплоощущения человека.
Tes - Эффективная температура на солнце - температура, которую ощущает человек, с поправкой на солнечный нагрев. Характеристика знойности погоды. Зависит от высоты солнца над горизонтом, облачности и скорости ветра. Ночью, в пасмурную погоду, а также при ветре 12 м/с и более поправка равна нулю.
P - Атмосферное давление - приведенное к уровню моря атмосферное давление.
Po - Атмосферное давление - измеренное на уровне метеостанции атмосферное давление.
Tmin - Минимальная температура - минимум температуры воздуха на высоте 2 м над землей.
Tmax - Максимальная температура - максимум температуры воздуха на высоте 2 м над землей.
R - Количество осадков - Количество выпавших осадков за период времени, мм. При наведении курсора мыши на число - период времени, за который выпало указанное количество осадков.
R24 - Количество осадков - Количество выпавших осадков за 24 часа, мм.
S - Снежный покров - Высота снежного покрова, см. При наведении курсора мыши на число - состояние снежного покрова и степень покрытия местности в баллах.